Wetterdaten: Dienstag, 15.11.2011
Datum Zeit Temp. A. Temp. A. min Temp. A. max Feuchte A. Bod.Feucht 4 Luftdruck Regen Wind Richtung Richtung Sonnenschein ET Solar Taupunkt Windchill Windben Empfang
15.11.2011 00:00 0,6 C 0,0 C 0,0 C 89 % 0 cb 1020,5 hPa 0,0 l/m 0,6 km/h (0 Bft) SO 135 0 min 0,000 mm 0 W/m -1,0 C 0,6 C 0,6 km/h (0 Bft) 0,00 %
15.11.2011 00:05 0,6 C 0,0 C 0,0 C 89 % 0 cb 1020,5 hPa 0,0 l/m 4,5 km/h (1 Bft) O 90 0 min 0,000 mm 0 W/m -1,0 C 0,6 C 4,5 km/h (1 Bft) 0,00 %
15.11.2011 00:10 0,6 C 0,0 C 0,0 C 89 % 0 cb 1020,5 hPa 0,0 l/m 0,6 km/h (0 Bft) N 5 0 min 0,000 mm 0 W/m -1,0 C 0,6 C 0,6 km/h (0 Bft) 0,00 %
15.11.2011 00:15 0,6 C 0,0 C 0,0 C 89 % 0 cb 1020,5 hPa 0,0 l/m 0,0 km/h (0 Bft) SO 145 0 min 0,000 mm 0 W/m -1,0 C 0,6 C 0,0 km/h (0 Bft) 0,00 %
15.11.2011 00:20 0,6 C 0,0 C 0,0 C 89 % 0 cb 1020,5 hPa 0,0 l/m 0,0 km/h (0 Bft) O-SO 120 0 min 0,000 mm 0 W/m -1,0 C 0,6 C 0,0 km/h (0 Bft) 0,00 %
15.11.2011 00:25 0,6 C 0,0 C 0,0 C 89 % 0 cb 1020,5 hPa 0,0 l/m 0,0 km/h (0 Bft) O 85 0 min 0,000 mm 0 W/m -1,0 C 0,6 C 0,0 km/h (0 Bft) 0,00 %
15.11.2011 00:30 0,5 C 0,0 C 0,0 C 89 % 0 cb 1020,5 hPa 0,0 l/m 1,5 km/h (1 Bft) NO 55 0 min 0,000 mm 0 W/m -1,1 C 0,5 C 1,5 km/h (1 Bft) 0,00 %
15.11.2011 00:35 0,6 C 0,0 C 0,0 C 89 % 0 cb 1020,5 hPa 0,0 l/m 3,0 km/h (1 Bft) O-NO 70 0 min 0,000 mm 0 W/m -1,0 C 0,6 C 3,0 km/h (1 Bft) 0,00 %
15.11.2011 00:40 0,5 C 0,0 C 0,0 C 89 % 0 cb 1020,5 hPa 0,0 l/m 0,6 km/h (0 Bft) N-NO 25 0 min 0,000 mm 0 W/m -1,1 C 0,5 C 0,6 km/h (0 Bft) 0,00 %
15.11.2011 00:45 0,5 C 0,0 C 0,0 C 89 % 0 cb 1020,5 hPa 0,0 l/m 0,9 km/h (0 Bft) SW 225 0 min 0,000 mm 0 W/m -1,1 C 0,5 C 0,9 km/h (0 Bft) 0,00 %
15.11.2011 00:50 0,5 C 0,0 C 0,0 C 89 % 0 cb 1020,5 hPa 0,0 l/m 3,9 km/h (1 Bft) N 10 0 min 0,000 mm 0 W/m -1,1 C 0,5 C 3,9 km/h (1 Bft) 0,00 %
15.11.2011 00:55 0,6 C 0,0 C 0,0 C 89 % 0 cb 1020,5 hPa 0,0 l/m 2,1 km/h (1 Bft) O 90 0 min 0,000 mm 0 W/m -1,0 C 0,6 C 2,1 km/h (1 Bft) 0,00 %
15.11.2011 01:00 0,6 C 0,0 C 0,0 C 89 % 0 cb 1020,5 hPa 0,0 l/m 3,0 km/h (1 Bft) O-SO 115 0 min 0,000 mm 0 W/m -1,0 C 0,6 C 3,0 km/h (1 Bft) 0,00 %
15.11.2011 01:05 0,6 C 0,0 C 0,0 C 89 % 0 cb 1020,5 hPa 0,0 l/m 0,0 km/h (0 Bft) O-NO 75 0 min 0,000 mm 0 W/m -1,0 C 0,6 C 0,0 km/h (0 Bft) 0,00 %
15.11.2011 01:10 0,5 C 0,0 C 0,0 C 89 % 0 cb 1020,5 hPa 0,0 l/m 2,4 km/h (1 Bft) N-NO 15 0 min 0,000 mm 0 W/m -1,1 C 0,5 C 2,4 km/h (1 Bft) 0,00 %
15.11.2011 01:15 0,6 C 0,0 C 0,0 C 89 % 0 cb 1020,5 hPa 0,0 l/m 0,0 km/h (0 Bft) NW 310 0 min 0,000 mm 0 W/m -1,0 C 0,6 C 0,0 km/h (0 Bft) 0,00 %
15.11.2011 01:20 0,6 C 0,0 C 0,0 C 89 % 0 cb 1020,5 hPa 0,0 l/m 0,0 km/h (0 Bft) O 90 0 min 0,000 mm 0 W/m -1,0 C 0,6 C 0,0 km/h (0 Bft) 0,00 %
15.11.2011 01:25 0,5 C 0,0 C 0,0 C 89 % 0 cb 1020,5 hPa 0,0 l/m 0,0 km/h (0 Bft) S-SW 205 0 min 0,000 mm 0 W/m -1,1 C 0,5 C 0,0 km/h (0 Bft) 0,00 %
15.11.2011 01:30 0,6 C 0,0 C 0,0 C 89 % 0 cb 1019,5 hPa 0,0 l/m 0,0 km/h (0 Bft) W-SW 245 0 min 0,000 mm 0 W/m -1,0 C 0,6 C 0,0 km/h (0 Bft) 0,00 %
15.11.2011 01:35 0,5 C 0,0 C 0,0 C 89 % 0 cb 1019,5 hPa 0,0 l/m 0,0 km/h (0 Bft) W-NW 290 0 min 0,000 mm 0 W/m -1,1 C 0,5 C 0,0 km/h (0 Bft) 0,00 %
15.11.2011 01:40 0,6 C 0,0 C 0,0 C 89 % 0 cb 1019,5 hPa 0,0 l/m 0,0 km/h (0 Bft) O 90 0 min 0,000 mm 0 W/m -1,0 C 0,6 C 0,0 km/h (0 Bft) 0,00 %
15.11.2011 01:45 0,6 C 0,0 C 0,0 C 89 % 0 cb 1020,5 hPa 0,0 l/m 0,0 km/h (0 Bft) N-NO 30 0 min 0,000 mm 0 W/m -1,0 C 0,6 C 0,0 km/h (0 Bft) 0,00 %
15.11.2011 01:50 0,5 C 0,0 C 0,0 C 89 % 0 cb 1020,5 hPa 0,0 l/m 0,0 km/h (0 Bft) NW 325 0 min 0,000 mm 0 W/m -1,1 C 0,5 C 0,0 km/h (0 Bft) 0,00 %
15.11.2011 01:55 0,5 C 0,0 C 0,0 C 89 % 0 cb 1020,5 hPa 0,0 l/m 0,0 km/h (0 Bft) O-SO 105 0 min 0,000 mm 0 W/m -1,1 C 0,5 C 0,0 km/h (0 Bft) 0,00 %
15.11.2011 02:00 0,5 C 0,0 C 0,0 C 89 % 0 cb 1020,5 hPa 0,0 l/m 0,0 km/h (0 Bft) O 95 0 min 0,000 mm 0 W/m -1,1 C 0,5 C 0,0 km/h (0 Bft) 0,00 %
15.11.2011 02:05 0,5 C 0,0 C 0,0 C 89 % 0 cb 1020,5 hPa 0,0 l/m 0,0 km/h (0 Bft) N-NO 30 0 min 0,000 mm 0 W/m -1,1 C 0,5 C 0,0 km/h (0 Bft) 0,00 %
15.11.2011 02:10 0,5 C 0,0 C 0,0 C 89 % 0 cb 1020,5 hPa 0,0 l/m 2,4 km/h (1 Bft) O-SO 105 0 min 0,000 mm 0 W/m -1,1 C 0,5 C 2,4 km/h (1 Bft) 0,00 %
15.11.2011 02:15 0,4 C 0,0 C 0,0 C 89 % 0 cb 1019,5 hPa 0,0 l/m 4,8 km/h (1 Bft) O-NO 75 0 min 0,000 mm 0 W/m -1,2 C -1,0 C 4,8 km/h (1 Bft) 0,00 %
15.11.2011 02:20 0,5 C 0,0 C 0,0 C 89 % 0 cb 1019,5 hPa 0,0 l/m 3,6 km/h (1 Bft) NO 50 0 min 0,000 mm 0 W/m -1,1 C 0,5 C 3,6 km/h (1 Bft) 0,00 %
15.11.2011 02:25 0,5 C 0,0 C 0,0 C 89 % 0 cb 1019,5 hPa 0,0 l/m 2,4 km/h (1 Bft) O 85 0 min 0,000 mm 0 W/m -1,1 C 0,5 C 2,4 km/h (1 Bft) 0,00 %
15.11.2011 02:30 0,5 C 0,0 C 0,0 C 89 % 0 cb 1020,5 hPa 0,0 l/m 0,6 km/h (0 Bft) S 170 0 min 0,000 mm 0 W/m -1,1 C 0,5 C 0,6 km/h (0 Bft) 0,00 %
15.11.2011 02:35 0,5 C 0,0 C 0,0 C 89 % 0 cb 1020,5 hPa 0,0 l/m 2,1 km/h (1 Bft) O 90 0 min 0,000 mm 0 W/m -1,1 C 0,5 C 2,1 km/h (1 Bft) 0,00 %
15.11.2011 02:40 0,4 C 0,0 C 0,0 C 89 % 0 cb 1020,5 hPa 0,0 l/m 4,5 km/h (1 Bft) N 10 0 min 0,000 mm 0 W/m -1,2 C 0,4 C 4,5 km/h (1 Bft) 0,00 %
15.11.2011 02:45 0,4 C 0,0 C 0,0 C 89 % 0 cb 1019,5 hPa 0,0 l/m 0,0 km/h (0 Bft) N-NO 20 0 min 0,000 mm 0 W/m -1,2 C 0,4 C 0,0 km/h (0 Bft) 0,00 %
15.11.2011 02:50 0,4 C 0,0 C 0,0 C 89 % 0 cb 1019,5 hPa 0,0 l/m 4,8 km/h (1 Bft) O 100 0 min 0,000 mm 0 W/m -1,2 C -1,0 C 4,8 km/h (1 Bft) 0,00 %
15.11.2011 02:55 0,4 C 0,0 C 0,0 C 89 % 0 cb 1019,5 hPa 0,0 l/m 3,6 km/h (1 Bft) O 100 0 min 0,000 mm 0 W/m -1,2 C 0,4 C 3,6 km/h (1 Bft) 0,00 %
15.11.2011 03:00 0,4 C 0,0 C 0,0 C 89 % 0 cb 1019,5 hPa 0,0 l/m 3,9 km/h (1 Bft) N-NW 340 0 min 0,000 mm 0 W/m -1,2 C 0,4 C 3,9 km/h (1 Bft) 0,00 %
15.11.2011 03:05 0,3 C 0,0 C 0,0 C 89 % 0 cb 1019,5 hPa 0,0 l/m 0,6 km/h (0 Bft) O 80 0 min 0,000 mm 0 W/m -1,3 C 0,3 C 0,6 km/h (0 Bft) 0,00 %
15.11.2011 03:10 0,4 C 0,0 C 0,0 C 89 % 0 cb 1019,5 hPa 0,0 l/m 0,9 km/h (0 Bft) NO 45 0 min 0,000 mm 0 W/m -1,2 C 0,4 C 0,9 km/h (0 Bft) 0,00 %
15.11.2011 03:15 0,3 C 0,0 C 0,0 C 89 % 0 cb 1019,5 hPa 0,0 l/m 7,0 km/h (2 Bft) O-NO 65 0 min 0,000 mm 0 W/m -1,3 C -2,1 C 7,0 km/h (2 Bft) 0,00 %
15.11.2011 03:20 0,2 C 0,0 C 0,0 C 89 % 0 cb 1019,5 hPa 0,0 l/m 4,2 km/h (1 Bft) NO 55 0 min 0,000 mm 0 W/m -1,4 C 0,2 C 4,2 km/h (1 Bft) 0,00 %
15.11.2011 03:25 0,2 C 0,0 C 0,0 C 89 % 0 cb 1019,5 hPa 0,0 l/m 2,1 km/h (1 Bft) N 350 0 min 0,000 mm 0 W/m -1,4 C 0,2 C 2,1 km/h (1 Bft) 0,00 %
15.11.2011 03:30 0,2 C 0,0 C 0,0 C 89 % 0 cb 1019,5 hPa 0,0 l/m 1,8 km/h (1 Bft) S 190 0 min 0,000 mm 0 W/m -1,4 C 0,2 C 1,8 km/h (1 Bft) 0,00 %
15.11.2011 03:35 0,2 C 0,0 C 0,0 C 89 % 0 cb 1019,5 hPa 0,0 l/m 3,6 km/h (1 Bft) NW 315 0 min 0,000 mm 0 W/m -1,4 C 0,2 C 3,6 km/h (1 Bft) 0,00 %
15.11.2011 03:40 0,2 C 0,0 C 0,0 C 89 % 0 cb 1019,5 hPa 0,0 l/m 3,6 km/h (1 Bft) S-SW 210 0 min 0,000 mm 0 W/m -1,4 C 0,2 C 3,6 km/h (1 Bft) 0,00 %
15.11.2011 03:45 0,2 C 0,0 C 0,0 C 89 % 0 cb 1019,5 hPa 0,0 l/m 2,1 km/h (1 Bft) S 180 0 min 0,000 mm 0 W/m -1,4 C 0,2 C 2,1 km/h (1 Bft) 0,00 %
15.11.2011 03:50 0,2 C 0,0 C 0,0 C 89 % 0 cb 1019,5 hPa 0,0 l/m 0,0 km/h (0 Bft) O-NO 75 0 min 0,000 mm 0 W/m -1,4 C 0,2 C 0,0 km/h (0 Bft) 0,00 %
15.11.2011 03:55 0,2 C 0,0 C 0,0 C 89 % 0 cb 1019,5 hPa 0,0 l/m 0,0 km/h (0 Bft) O 80 0 min 0,000 mm 0 W/m -1,4 C 0,2 C 0,0 km/h (0 Bft) 0,00 %
15.11.2011 04:00 0,2 C 0,0 C 0,0 C 89 % 0 cb 1019,5 hPa 0,0 l/m 0,3 km/h (0 Bft) O-NO 70 0 min 0,000 mm 0 W/m -1,4 C 0,2 C 0,3 km/h (0 Bft) 0,00 %
15.11.2011 04:05 0,2 C 0,0 C 0,0 C 89 % 0 cb 1019,5 hPa 0,0 l/m 3,0 km/h (1 Bft) NO 35 0 min 0,000 mm 0 W/m -1,4 C 0,2 C 3,0 km/h (1 Bft) 0,00 %
15.11.2011 04:10 0,1 C 0,0 C 0,0 C 89 % 0 cb 1019,5 hPa 0,0 l/m 2,4 km/h (1 Bft) N-NO 20 0 min 0,000 mm 0 W/m -1,5 C 0,1 C 2,4 km/h (1 Bft) 0,00 %
15.11.2011 04:15 0,0 C 0,0 C 0,0 C 89 % 0 cb 1019,5 hPa 0,0 l/m 7,3 km/h (2 Bft) O 90 0 min 0,000 mm 0 W/m -1,6 C -2,5 C 7,3 km/h (2 Bft) 0,00 %
15.11.2011 04:20 0,0 C 0,0 C 0,0 C 89 % 0 cb 1019,5 hPa 0,0 l/m 10,3 km/h (2 Bft) S 170 0 min 0,000 mm 0 W/m -1,6 C -3,4 C 10,3 km/h (2 Bft) 0,00 %
15.11.2011 04:25 0,0 C 0,0 C 0,0 C 89 % 0 cb 1019,5 hPa 0,0 l/m 5,4 km/h (1 Bft) W-NW 290 0 min 0,000 mm 0 W/m -1,6 C -1,8 C 5,4 km/h (1 Bft) 0,00 %
15.11.2011 04:30 0,0 C 0,0 C 0,0 C 89 % 0 cb 1018,5 hPa 0,0 l/m 0,3 km/h (0 Bft) O 95 0 min 0,000 mm 0 W/m -1,6 C 0,0 C 0,3 km/h (0 Bft) 0,00 %
15.11.2011 04:35 0,1 C 0,0 C 0,0 C 89 % 0 cb 1018,5 hPa 0,0 l/m 4,5 km/h (1 Bft) S-SO 165 0 min 0,000 mm 0 W/m -1,5 C 0,1 C 4,5 km/h (1 Bft) 0,00 %
15.11.2011 04:40 0,1 C 0,0 C 0,0 C 89 % 0 cb 1018,5 hPa 0,0 l/m 2,7 km/h (1 Bft) N-NW 340 0 min 0,000 mm 0 W/m -1,5 C 0,1 C 2,7 km/h (1 Bft) 0,00 %
15.11.2011 04:45 0,1 C 0,0 C 0,0 C 89 % 0 cb 1019,5 hPa 0,0 l/m 0,0 km/h (0 Bft) NO 35 0 min 0,000 mm 0 W/m -1,5 C 0,1 C 0,0 km/h (0 Bft) 0,00 %
15.11.2011 04:50 0,1 C 0,0 C 0,0 C 89 % 0 cb 1019,5 hPa 0,0 l/m 4,2 km/h (1 Bft) O-NO 65 0 min 0,000 mm 0 W/m -1,5 C 0,1 C 4,2 km/h (1 Bft) 0,00 %
15.11.2011 04:55 0,0 C 0,0 C 0,0 C 89 % 0 cb 1019,5 hPa 0,0 l/m 0,0 km/h (0 Bft) N-NW 335 0 min 0,000 mm 0 W/m -1,6 C 0,0 C 0,0 km/h (0 Bft) 0,00 %
15.11.2011 05:00 0,1 C 0,0 C 0,0 C 89 % 0 cb 1019,5 hPa 0,0 l/m 3,0 km/h (1 Bft) S-SO 165 0 min 0,000 mm 0 W/m -1,5 C 0,1 C 3,0 km/h (1 Bft) 0,00 %
15.11.2011 05:05 0,1 C 0,0 C 0,0 C 89 % 0 cb 1019,5 hPa 0,0 l/m 2,4 km/h (1 Bft) N 5 0 min 0,000 mm 0 W/m -1,5 C 0,1 C 2,4 km/h (1 Bft) 0,00 %
15.11.2011 05:10 0,1 C 0,0 C 0,0 C 89 % 0 cb 1019,5 hPa 0,0 l/m 0,6 km/h (0 Bft) O 80 0 min 0,000 mm 0 W/m -1,5 C 0,1 C 0,6 km/h (0 Bft) 0,00 %
15.11.2011 05:15 0,1 C 0,0 C 0,0 C 89 % 0 cb 1019,5 hPa 0,0 l/m 3,6 km/h (1 Bft) SO 125 0 min 0,000 mm 0 W/m -1,5 C 0,1 C 3,6 km/h (1 Bft) 0,00 %
15.11.2011 05:20 0,1 C 0,0 C 0,0 C 89 % 0 cb 1019,5 hPa 0,0 l/m 3,0 km/h (1 Bft) O 90 0 min 0,000 mm 0 W/m -1,5 C 0,1 C 3,0 km/h (1 Bft) 0,00 %
15.11.2011 05:25 0,1 C 0,0 C 0,0 C 89 % 0 cb 1019,5 hPa 0,0 l/m 3,6 km/h (1 Bft) S-SO 165 0 min 0,000 mm 0 W/m -1,5 C 0,1 C 3,6 km/h (1 Bft) 0,00 %
15.11.2011 05:30 0,0 C 0,0 C 0,0 C 89 % 0 cb 1019,5 hPa 0,0 l/m 2,4 km/h (1 Bft) SW 225 0 min 0,000 mm 0 W/m -1,6 C 0,0 C 2,4 km/h (1 Bft) 0,00 %
15.11.2011 05:31 0,0 C 0,0 C 0,0 C 89 % 0 cb 1019,5 hPa 0,0 l/m 0,6 km/h (0 Bft) O 90 0 min 0,000 mm 0 W/m -1,6 C 0,0 C 0,6 km/h (0 Bft) 0,00 %
15.11.2011 05:35 0,0 C 0,0 C 0,0 C 89 % 0 cb 1019,5 hPa 0,0 l/m 1,2 km/h (1 Bft) W-NW 290 0 min 0,000 mm 0 W/m -1,6 C 0,0 C 1,2 km/h (1 Bft) 0,00 %
15.11.2011 05:40 0,0 C 0,0 C 0,0 C 89 % 0 cb 1019,5 hPa 0,0 l/m 3,3 km/h (1 Bft) O 90 0 min 0,000 mm 0 W/m -1,6 C 0,0 C 3,3 km/h (1 Bft) 0,00 %
15.11.2011 05:45 0,0 C 0,0 C 0,0 C 89 % 0 cb 1019,5 hPa 0,0 l/m 0,0 km/h (0 Bft) NW 305 0 min 0,000 mm 0 W/m -1,6 C 0,0 C 0,0 km/h (0 Bft) 0,00 %
15.11.2011 05:50 0,0 C 0,0 C 0,0 C 89 % 0 cb 1019,5 hPa 0,0 l/m 3,9 km/h (1 Bft) O-NO 60 0 min 0,000 mm 0 W/m -1,6 C 0,0 C 3,9 km/h (1 Bft) 0,00 %
15.11.2011 05:55 0,0 C 0,0 C 0,0 C 89 % 0 cb 1019,5 hPa 0,0 l/m 2,4 km/h (1 Bft) NO 55 0 min 0,000 mm 0 W/m -1,6 C 0,0 C 2,4 km/h (1 Bft) 0,00 %
15.11.2011 06:00 0,0 C 0,0 C 0,0 C 89 % 0 cb 1018,5 hPa 0,0 l/m 2,4 km/h (1 Bft) O-NO 70 0 min 0,000 mm 0 W/m -1,6 C 0,0 C 2,4 km/h (1 Bft) 0,00 %
15.11.2011 06:05 0,0 C 0,0 C 0,0 C 89 % 0 cb 1018,5 hPa 0,0 l/m 0,3 km/h (0 Bft) N 355 0 min 0,000 mm 0 W/m -1,6 C 0,0 C 0,3 km/h (0 Bft) 0,00 %
15.11.2011 06:10 0,0 C 0,0 C 0,0 C 89 % 0 cb 1018,5 hPa 0,0 l/m 3,0 km/h (1 Bft) N 10 0 min 0,000 mm 0 W/m -1,6 C 0,0 C 3,0 km/h (1 Bft) 0,00 %
15.11.2011 06:15 0,0 C 0,0 C 0,0 C 89 % 0 cb 1018,5 hPa 0,0 l/m 0,3 km/h (0 Bft) O 95 0 min 0,000 mm 0 W/m -1,6 C 0,0 C 0,3 km/h (0 Bft) 0,00 %
15.11.2011 06:20 0,0 C 0,0 C 0,0 C 89 % 0 cb 1018,5 hPa 0,0 l/m 0,9 km/h (0 Bft) O-SO 110 0 min 0,000 mm 0 W/m -1,6 C 0,0 C 0,9 km/h (0 Bft) 0,00 %
15.11.2011 06:25 0,0 C 0,0 C 0,0 C 89 % 0 cb 1018,5 hPa 0,0 l/m 0,0 km/h (0 Bft) O 90 0 min 0,000 mm 0 W/m -1,6 C 0,0 C 0,0 km/h (0 Bft) 0,00 %
15.11.2011 06:30 0,0 C 0,0 C 0,0 C 89 % 0 cb 1018,5 hPa 0,0 l/m 3,9 km/h (1 Bft) N-NO 30 0 min 0,000 mm 0 W/m -1,6 C 0,0 C 3,9 km/h (1 Bft) 0,00 %
15.11.2011 06:35 0,0 C 0,0 C 0,0 C 89 % 0 cb 1018,5 hPa 0,0 l/m 2,1 km/h (1 Bft) N-NW 340 0 min 0,000 mm 0 W/m -1,6 C 0,0 C 2,1 km/h (1 Bft) 0,00 %
15.11.2011 06:40 0,0 C 0,0 C 0,0 C 89 % 0 cb 1018,5 hPa 0,0 l/m 7,9 km/h (2 Bft) O 95 0 min 0,000 mm 0 W/m -1,6 C -2,7 C 7,9 km/h (2 Bft) 0,00 %
15.11.2011 06:45 0,0 C 0,0 C 0,0 C 89 % 0 cb 1018,5 hPa 0,0 l/m 3,0 km/h (1 Bft) O-NO 70 0 min 0,000 mm 0 W/m -1,6 C 0,0 C 3,0 km/h (1 Bft) 0,00 %
15.11.2011 06:50 0,0 C 0,0 C 0,0 C 89 % 0 cb 1018,5 hPa 0,0 l/m 0,0 km/h (0 Bft) O-SO 105 0 min 0,000 mm 0 W/m -1,6 C 0,0 C 0,0 km/h (0 Bft) 0,00 %
15.11.2011 06:55 0,0 C 0,0 C 0,0 C 89 % 0 cb 1018,5 hPa 0,0 l/m 1,2 km/h (1 Bft) NO 45 0 min 0,000 mm 0 W/m -1,6 C 0,0 C 1,2 km/h (1 Bft) 0,00 %
15.11.2011 07:00 -0,1 C 0,0 C 0,0 C 89 % 0 cb 1018,5 hPa 0,0 l/m 3,0 km/h (1 Bft) NW 325 0 min 0,000 mm 0 W/m -1,7 C -0,1 C 3,0 km/h (1 Bft) 0,00 %
15.11.2011 07:05 -0,1 C 0,0 C 0,0 C 89 % 0 cb 1018,5 hPa 0,0 l/m 0,0 km/h (0 Bft) NO 40 0 min 0,000 mm 0 W/m -1,7 C -0,1 C 0,0 km/h (0 Bft) 0,00 %
15.11.2011 07:10 -0,1 C 0,0 C 0,0 C 89 % 0 cb 1018,5 hPa 0,0 l/m 6,7 km/h (2 Bft) O 90 0 min 0,000 mm 0 W/m -1,7 C -2,4 C 6,7 km/h (2 Bft) 0,00 %
15.11.2011 07:15 -0,1 C 0,0 C 0,0 C 89 % 0 cb 1018,5 hPa 0,0 l/m 0,0 km/h (0 Bft) O 90 0 min 0,000 mm 0 W/m -1,7 C -0,1 C 0,0 km/h (0 Bft) 0,00 %
15.11.2011 07:20 -0,2 C 0,0 C 0,0 C 89 % 0 cb 1018,5 hPa 0,0 l/m 3,6 km/h (1 Bft) NO 55 0 min 0,000 mm 0 W/m -1,8 C -0,2 C 3,6 km/h (1 Bft) 0,00 %
15.11.2011 07:25 -0,1 C 0,0 C 0,0 C 89 % 0 cb 1018,5 hPa 0,0 l/m 2,1 km/h (1 Bft) NW 325 0 min 0,000 mm 0 W/m -1,7 C -0,1 C 2,1 km/h (1 Bft) 0,00 %
15.11.2011 07:30 -0,2 C 0,0 C 0,0 C 89 % 0 cb 1019,5 hPa 0,0 l/m 1,5 km/h (1 Bft) NO 50 0 min 0,000 mm 0 W/m -1,8 C -0,2 C 1,5 km/h (1 Bft) 0,00 %
15.11.2011 07:35 -0,1 C 0,0 C 0,0 C 89 % 0 cb 1019,5 hPa 0,0 l/m 4,5 km/h (1 Bft) NO 40 0 min 0,000 mm 0 W/m -1,7 C -0,1 C 4,5 km/h (1 Bft) 0,00 %
15.11.2011 07:40 -0,2 C 0,0 C 0,0 C 89 % 0 cb 1019,5 hPa 0,0 l/m 6,1 km/h (2 Bft) O 80 0 min 0,000 mm 0 W/m -1,8 C -2,3 C 6,1 km/h (2 Bft) 0,00 %
15.11.2011 07:45 -0,2 C 0,0 C 0,0 C 89 % 0 cb 1018,5 hPa 0,0 l/m 7,6 km/h (2 Bft) N-NO 30 0 min 0,000 mm 0 W/m -1,8 C -2,8 C 7,6 km/h (2 Bft) 0,00 %
15.11.2011 07:50 -0,2 C 0,0 C 0,0 C 89 % 0 cb 1018,5 hPa 0,0 l/m 5,1 km/h (1 Bft) O 80 0 min 0,000 mm 0 W/m -1,8 C -1,9 C 5,1 km/h (1 Bft) 0,00 %
15.11.2011 07:55 -0,2 C 0,0 C 0,0 C 89 % 0 cb 1018,5 hPa 0,0 l/m 4,8 km/h (1 Bft) S-SO 150 0 min 0,000 mm 0 W/m -1,8 C -1,7 C 4,8 km/h (1 Bft) 0,00 %
15.11.2011 08:00 -0,1 C 0,0 C 0,0 C 88 % 0 cb 1019,5 hPa 0,0 l/m 4,2 km/h (1 Bft) O-SO 110 0 min 0,000 mm 0 W/m -1,8 C -0,1 C 4,2 km/h (1 Bft) 0,00 %
15.11.2011 08:05 -0,1 C 0,0 C 0,0 C 88 % 0 cb 1019,5 hPa 0,0 l/m 5,4 km/h (1 Bft) NO 50 0 min 0,000 mm 0 W/m -1,8 C -1,9 C 5,4 km/h (1 Bft) 0,00 %
15.11.2011 08:10 -0,1 C 0,0 C 0,0 C 88 % 0 cb 1019,5 hPa 0,0 l/m 2,4 km/h (1 Bft) NO 55 0 min 0,000 mm 0 W/m -1,8 C -0,1 C 2,4 km/h (1 Bft) 0,00 %
15.11.2011 08:15 0,0 C 0,0 C 0,0 C 88 % 0 cb 1019,5 hPa 0,0 l/m 2,4 km/h (1 Bft) N-NO 15 0 min 0,000 mm 0 W/m -1,7 C 0,0 C 2,4 km/h (1 Bft) 0,00 %
15.11.2011 08:20 0,0 C 0,0 C 0,0 C 88 % 0 cb 1019,5 hPa 0,0 l/m 3,0 km/h (1 Bft) NO 40 0 min 0,000 mm 0 W/m -1,7 C 0,0 C 3,0 km/h (1 Bft) 0,00 %
15.11.2011 08:25 0,0 C 0,0 C 0,0 C 88 % 0 cb 1019,5 hPa 0,0 l/m 0,0 km/h (0 Bft) S 190 0 min 0,000 mm 0 W/m -1,7 C 0,0 C 0,0 km/h (0 Bft) 0,00 %
15.11.2011 08:30 0,0 C 0,0 C 0,0 C 88 % 0 cb 1019,5 hPa 0,0 l/m 0,0 km/h (0 Bft) O-SO 105 0 min 0,000 mm 0 W/m -1,7 C 0,0 C 0,0 km/h (0 Bft) 0,00 %
15.11.2011 08:35 0,1 C 0,0 C 0,0 C 88 % 0 cb 1019,5 hPa 0,0 l/m 4,8 km/h (1 Bft) W-NW 295 0 min 0,000 mm 0 W/m -1,6 C -1,4 C 4,8 km/h (1 Bft) 0,00 %
15.11.2011 08:40 0,1 C 0,0 C 0,0 C 88 % 0 cb 1019,5 hPa 0,0 l/m 3,6 km/h (1 Bft) W 275 0 min 0,000 mm 0 W/m -1,6 C 0,1 C 3,6 km/h (1 Bft) 0,00 %
15.11.2011 08:45 0,2 C 0,0 C 0,0 C 88 % 0 cb 1019,5 hPa 0,0 l/m 9,4 km/h (2 Bft) S-SW 200 0 min 0,000 mm 0 W/m -1,5 C -2,9 C 9,4 km/h (2 Bft) 0,00 %
15.11.2011 08:50 0,2 C 0,0 C 0,0 C 88 % 0 cb 1019,5 hPa 0,0 l/m 2,1 km/h (1 Bft) N-NO 30 0 min 0,000 mm 0 W/m -1,5 C 0,2 C 2,1 km/h (1 Bft) 0,00 %
15.11.2011 08:55 0,2 C 0,0 C 0,0 C 88 % 0 cb 1019,5 hPa 0,0 l/m 3,3 km/h (1 Bft) SW 230 0 min 0,000 mm 0 W/m -1,5 C 0,2 C 3,3 km/h (1 Bft) 0,00 %
15.11.2011 09:00 0,2 C 0,0 C 0,0 C 88 % 0 cb 1019,5 hPa 0,0 l/m 8,5 km/h (2 Bft) NO 35 0 min 0,000 mm 0 W/m -1,5 C -2,7 C 8,5 km/h (2 Bft) 0,00 %
15.11.2011 09:05 0,4 C 0,0 C 0,0 C 88 % 0 cb 1019,5 hPa 0,0 l/m 0,0 km/h (0 Bft) NW 310 0 min 0,000 mm 0 W/m -1,3 C 0,4 C 0,0 km/h (0 Bft) 0,00 %
15.11.2011 09:10 0,4 C 0,0 C 0,0 C 87 % 0 cb 1019,5 hPa 0,0 l/m 3,3 km/h (1 Bft) NW 325 0 min 0,000 mm 0 W/m -1,5 C 0,4 C 3,3 km/h (1 Bft) 0,00 %
15.11.2011 09:15 0,4 C 0,0 C 0,0 C 87 % 0 cb 1019,5 hPa 0,0 l/m 3,9 km/h (1 Bft) S 170 0 min 0,000 mm 0 W/m -1,5 C 0,4 C 3,9 km/h (1 Bft) 0,00 %
15.11.2011 09:20 0,4 C 0,0 C 0,0 C 87 % 0 cb 1019,5 hPa 0,0 l/m 4,2 km/h (1 Bft) O 85 0 min 0,000 mm 0 W/m -1,5 C 0,4 C 4,2 km/h (1 Bft) 0,00 %
15.11.2011 09:25 0,5 C 0,0 C 0,0 C 87 % 0 cb 1019,5 hPa 0,0 l/m 3,3 km/h (1 Bft) SW 235 0 min 0,000 mm 0 W/m -1,4 C 0,5 C 3,3 km/h (1 Bft) 0,00 %
15.11.2011 09:30 0,6 C 0,0 C 0,0 C 87 % 0 cb 1018,5 hPa 0,0 l/m 0,3 km/h (0 Bft) N-NW 330 0 min 0,000 mm 0 W/m -1,3 C 0,6 C 0,3 km/h (0 Bft) 0,00 %
15.11.2011 09:35 0,8 C 0,0 C 0,0 C 87 % 0 cb 1018,5 hPa 0,0 l/m 0,9 km/h (0 Bft) O-NO 75 0 min 0,000 mm 0 W/m -1,1 C 0,8 C 0,9 km/h (0 Bft) 0,00 %
15.11.2011 09:40 1,0 C 0,0 C 0,0 C 87 % 0 cb 1018,5 hPa 0,0 l/m 3,9 km/h (1 Bft) N-NW 335 0 min 0,000 mm 0 W/m -0,9 C 1,0 C 3,9 km/h (1 Bft) 0,00 %
15.11.2011 09:45 1,1 C 0,0 C 0,0 C 87 % 0 cb 1019,5 hPa 0,0 l/m 3,3 km/h (1 Bft) S 185 0 min 0,000 mm 0 W/m -0,8 C 1,1 C 3,3 km/h (1 Bft) 0,00 %
15.11.2011 09:50 1,3 C 0,0 C 0,0 C 86 % 0 cb 1019,5 hPa 0,0 l/m 0,6 km/h (0 Bft) O 85 0 min 0,000 mm 0 W/m -0,8 C 1,3 C 0,6 km/h (0 Bft) 0,00 %
15.11.2011 09:55 1,7 C 0,0 C 0,0 C 86 % 1 cb 1019,5 hPa 0,0 l/m 0,0 km/h (0 Bft) W-SW 245 0 min 0,000 mm 0 W/m -0,4 C 1,7 C 0,0 km/h (0 Bft) 0,00 %
15.11.2011 10:00 1,8 C 0,0 C 0,0 C 86 % 1 cb 1019,5 hPa 0,0 l/m 0,6 km/h (0 Bft) O-NO 65 0 min 0,000 mm 0 W/m -0,3 C 1,8 C 0,6 km/h (0 Bft) 0,00 %
15.11.2011 10:05 2,1 C 0,0 C 0,0 C 85 % 3 cb 1019,5 hPa 0,0 l/m 0,0 km/h (0 Bft) W-NW 285 0 min 0,000 mm 0 W/m -0,2 C 2,1 C 0,0 km/h (0 Bft) 0,00 %
15.11.2011 10:10 2,5 C 0,0 C 0,0 C 84 % 5 cb 1019,5 hPa 0,0 l/m 0,0 km/h (0 Bft) N 350 0 min 0,000 mm 0 W/m 0,1 C 2,5 C 0,0 km/h (0 Bft) 0,00 %
15.11.2011 10:15 2,9 C 0,0 C 0,0 C 83 % 4 cb 1018,5 hPa 0,0 l/m 1,2 km/h (1 Bft) SO 135 0 min 0,000 mm 0 W/m 0,3 C 2,9 C 1,2 km/h (1 Bft) 0,00 %
15.11.2011 10:20 3,5 C 0,0 C 0,0 C 82 % 6 cb 1018,5 hPa 0,0 l/m 2,1 km/h (1 Bft) N-NO 20 0 min 0,000 mm 0 W/m 0,7 C 3,5 C 2,1 km/h (1 Bft) 0,00 %
15.11.2011 10:25 3,4 C 0,0 C 0,0 C 81 % 4 cb 1018,5 hPa 0,0 l/m 2,7 km/h (1 Bft) O 90 0 min 0,000 mm 0 W/m 0,5 C 3,4 C 2,7 km/h (1 Bft) 0,00 %
15.11.2011 10:30 3,8 C 0,0 C 0,0 C 80 % 6 cb 1018,5 hPa 0,0 l/m 0,3 km/h (0 Bft) O-SO 110 0 min 0,000 mm 0 W/m 0,7 C 3,8 C 0,3 km/h (0 Bft) 0,00 %
15.11.2011 10:35 4,0 C 0,0 C 0,0 C 79 % 7 cb 1018,5 hPa 0,0 l/m 1,8 km/h (1 Bft) NO 55 0 min 0,000 mm 0 W/m 0,7 C 4,0 C 1,8 km/h (1 Bft) 0,00 %
15.11.2011 10:40 4,0 C 0,0 C 0,0 C 79 % 3 cb 1018,5 hPa 0,0 l/m 7,0 km/h (2 Bft) O 100 0 min 0,000 mm 0 W/m 0,7 C 2,2 C 7,0 km/h (2 Bft) 0,00 %
15.11.2011 10:45 4,0 C 0,0 C 0,0 C 78 % 7 cb 1019,5 hPa 0,0 l/m 2,1 km/h (1 Bft) O-SO 115 0 min 0,000 mm 0 W/m 0,5 C 4,0 C 2,1 km/h (1 Bft) 0,00 %
15.11.2011 10:50 3,6 C 0,0 C 0,0 C 79 % 3 cb 1019,5 hPa 0,0 l/m 4,5 km/h (1 Bft) SW 225 0 min 0,000 mm 0 W/m 0,3 C 3,6 C 4,5 km/h (1 Bft) 0,00 %
15.11.2011 10:55 3,7 C 0,0 C 0,0 C 79 % 7 cb 1019,5 hPa 0,0 l/m 1,8 km/h (1 Bft) S 180 0 min 0,000 mm 0 W/m 0,4 C 3,7 C 1,8 km/h (1 Bft) 0,00 %
15.11.2011 11:00 4,0 C 0,0 C 0,0 C 79 % 3 cb 1019,5 hPa 0,0 l/m 4,2 km/h (1 Bft) O-NO 70 0 min 0,000 mm 0 W/m 0,7 C 4,0 C 4,2 km/h (1 Bft) 0,00 %
15.11.2011 11:05 4,2 C 0,0 C 0,0 C 78 % 5 cb 1019,5 hPa 0,0 l/m 3,6 km/h (1 Bft) O-NO 60 0 min 0,000 mm 0 W/m 0,7 C 4,2 C 3,6 km/h (1 Bft) 0,00 %
15.11.2011 11:10 4,4 C 0,0 C 0,0 C 77 % 5 cb 1019,5 hPa 0,0 l/m 7,0 km/h (2 Bft) SO 145 0 min 0,000 mm 0 W/m 0,7 C 2,7 C 7,0 km/h (2 Bft) 0,00 %
15.11.2011 11:15 4,4 C 0,0 C 0,0 C 77 % 5 cb 1019,5 hPa 0,0 l/m 4,5 km/h (1 Bft) SW 230 0 min 0,000 mm 0 W/m 0,7 C 4,4 C 4,5 km/h (1 Bft) 0,00 %
15.11.2011 11:20 4,3 C 0,0 C 0,0 C 76 % 5 cb 1019,5 hPa 0,0 l/m 6,1 km/h (2 Bft) O-SO 105 0 min 0,000 mm 0 W/m 0,5 C 2,9 C 6,1 km/h (2 Bft) 0,00 %
15.11.2011 11:25 4,9 C 0,0 C 0,0 C 76 % 6 cb 1019,5 hPa 0,0 l/m 7,6 km/h (2 Bft) S-SW 200 0 min 0,000 mm 0 W/m 1,0 C 3,1 C 7,6 km/h (2 Bft) 0,00 %
15.11.2011 11:30 5,0 C 0,0 C 0,0 C 76 % 5 cb 1018,5 hPa 0,0 l/m 7,0 km/h (2 Bft) O 80 0 min 0,000 mm 0 W/m 1,1 C 3,4 C 7,0 km/h (2 Bft) 0,00 %
15.11.2011 11:35 5,0 C 0,0 C 0,0 C 76 % 4 cb 1018,5 hPa 0,0 l/m 7,9 km/h (2 Bft) N 10 0 min 0,000 mm 0 W/m 1,1 C 3,2 C 7,9 km/h (2 Bft) 0,00 %
15.11.2011 11:40 4,8 C 0,0 C 0,0 C 75 % 5 cb 1018,5 hPa 0,0 l/m 8,8 km/h (2 Bft) N-NO 25 0 min 0,000 mm 0 W/m 0,8 C 2,7 C 8,8 km/h (2 Bft) 0,00 %
15.11.2011 11:45 5,1 C 0,0 C 0,0 C 76 % 6 cb 1018,5 hPa 0,0 l/m 6,4 km/h (2 Bft) S-SO 155 0 min 0,000 mm 0 W/m 1,2 C 3,7 C 6,4 km/h (2 Bft) 0,00 %
15.11.2011 11:50 5,5 C 0,0 C 0,0 C 74 % 5 cb 1018,5 hPa 0,0 l/m 7,3 km/h (2 Bft) O 90 0 min 0,000 mm 0 W/m 1,2 C 3,9 C 7,3 km/h (2 Bft) 0,00 %
15.11.2011 11:55 5,7 C 0,0 C 0,0 C 74 % 4 cb 1018,5 hPa 0,0 l/m 7,3 km/h (2 Bft) O 95 0 min 0,000 mm 0 W/m 1,4 C 4,1 C 7,3 km/h (2 Bft) 0,00 %
15.11.2011 12:00 5,8 C 0,0 C 0,0 C 73 % 6 cb 1018,5 hPa 0,0 l/m 7,9 km/h (2 Bft) O 95 0 min 0,000 mm 0 W/m 1,3 C 4,1 C 7,9 km/h (2 Bft) 0,00 %
15.11.2011 12:05 6,1 C 0,0 C 0,0 C 72 % 4 cb 1018,5 hPa 0,0 l/m 4,8 km/h (1 Bft) SO 130 0 min 0,000 mm 0 W/m 1,4 C 5,4 C 4,8 km/h (1 Bft) 0,00 %
15.11.2011 12:10 6,3 C 0,0 C 0,0 C 72 % 6 cb 1018,5 hPa 0,0 l/m 5,1 km/h (1 Bft) O-NO 65 0 min 0,000 mm 0 W/m 1,6 C 5,5 C 5,1 km/h (1 Bft) 0,00 %
15.11.2011 12:15 6,2 C 0,0 C 0,0 C 71 % 4 cb 1018,5 hPa 0,0 l/m 5,1 km/h (1 Bft) N-NO 30 0 min 0,000 mm 0 W/m 1,3 C 5,4 C 5,1 km/h (1 Bft) 0,00 %
15.11.2011 12:20 6,5 C 0,0 C 0,0 C 72 % 6 cb 1018,5 hPa 0,0 l/m 5,1 km/h (1 Bft) O-NO 60 0 min 0,000 mm 0 W/m 1,8 C 5,7 C 5,1 km/h (1 Bft) 0,00 %
15.11.2011 12:25 6,5 C 0,0 C 0,0 C 71 % 5 cb 1018,5 hPa 0,0 l/m 7,3 km/h (2 Bft) O-NO 65 0 min 0,000 mm 0 W/m 1,6 C 5,1 C 7,3 km/h (2 Bft) 0,00 %
15.11.2011 12:30 6,2 C 0,0 C 0,0 C 71 % 5 cb 1018,5 hPa 0,0 l/m 7,0 km/h (2 Bft) O-SO 110 0 min 0,000 mm 0 W/m 1,3 C 4,8 C 7,0 km/h (2 Bft) 0,00 %
15.11.2011 12:35 6,5 C 0,0 C 0,0 C 71 % 5 cb 1018,5 hPa 0,0 l/m 6,7 km/h (2 Bft) S-SW 200 0 min 0,000 mm 0 W/m 1,6 C 5,2 C 6,7 km/h (2 Bft) 0,00 %
15.11.2011 12:40 6,5 C 0,0 C 0,0 C 71 % 6 cb 1018,5 hPa 0,0 l/m 5,4 km/h (1 Bft) N-NO 25 0 min 0,000 mm 0 W/m 1,6 C 5,6 C 5,4 km/h (1 Bft) 0,00 %
15.11.2011 12:45 6,7 C 0,0 C 0,0 C 71 % 5 cb 1018,5 hPa 0,0 l/m 4,8 km/h (1 Bft) O-NO 65 0 min 0,000 mm 0 W/m 1,8 C 6,1 C 4,8 km/h (1 Bft) 0,00 %
15.11.2011 12:50 6,4 C 0,0 C 0,0 C 71 % 4 cb 1018,5 hPa 0,0 l/m 7,0 km/h (2 Bft) W-SW 255 0 min 0,000 mm 0 W/m 1,5 C 5,0 C 7,0 km/h (2 Bft) 0,00 %
15.11.2011 12:55 6,6 C 0,0 C 0,0 C 71 % 6 cb 1018,5 hPa 0,0 l/m 5,1 km/h (1 Bft) S 180 0 min 0,000 mm 0 W/m 1,7 C 5,9 C 5,1 km/h (1 Bft) 0,00 %
15.11.2011 13:00 6,7 C 0,0 C 0,0 C 71 % 4 cb 1017,5 hPa 0,0 l/m 6,7 km/h (2 Bft) O 95 0 min 0,000 mm 0 W/m 1,8 C 5,5 C 6,7 km/h (2 Bft) 0,00 %
15.11.2011 13:05 6,8 C 0,0 C 0,0 C 70 % 3 cb 1017,5 hPa 0,0 l/m 7,0 km/h (2 Bft) O 80 0 min 0,000 mm 0 W/m 1,7 C 5,5 C 7,0 km/h (2 Bft) 0,00 %
15.11.2011 13:10 6,9 C 0,0 C 0,0 C 70 % 9 cb 1017,5 hPa 0,0 l/m 5,7 km/h (1 Bft) S 180 0 min 0,000 mm 0 W/m 1,8 C 6,0 C 5,7 km/h (1 Bft) 0,00 %
15.11.2011 13:15 7,1 C 0,0 C 0,0 C 69 % 5 cb 1017,5 hPa 0,0 l/m 6,4 km/h (2 Bft) NO 55 0 min 0,000 mm 0 W/m 1,8 C 6,0 C 6,4 km/h (2 Bft) 0,00 %
15.11.2011 13:20 7,7 C 0,0 C 0,0 C 69 % 5 cb 1017,5 hPa 0,0 l/m 7,3 km/h (2 Bft) O-SO 105 0 min 0,000 mm 0 W/m 2,4 C 6,5 C 7,3 km/h (2 Bft) 0,00 %
15.11.2011 13:25 8,0 C 0,0 C 0,0 C 68 % 5 cb 1017,5 hPa 0,0 l/m 7,6 km/h (2 Bft) O-SO 105 0 min 0,000 mm 0 W/m 2,5 C 6,8 C 7,6 km/h (2 Bft) 0,00 %
15.11.2011 13:30 7,7 C 0,0 C 0,0 C 68 % 3 cb 1017,5 hPa 0,0 l/m 4,8 km/h (1 Bft) NO 35 0 min 0,000 mm 0 W/m 2,2 C 7,2 C 4,8 km/h (1 Bft) 0,00 %
15.11.2011 13:35 7,9 C 0,0 C 0,0 C 68 % 6 cb 1017,5 hPa 0,0 l/m 4,5 km/h (1 Bft) O-NO 75 0 min 0,000 mm 0 W/m 2,4 C 7,9 C 4,5 km/h (1 Bft) 0,00 %
15.11.2011 13:40 7,3 C 0,0 C 0,0 C 69 % 6 cb 1017,5 hPa 0,0 l/m 7,3 km/h (2 Bft) S-SO 160 0 min 0,000 mm 0 W/m 2,0 C 6,0 C 7,3 km/h (2 Bft) 0,00 %
15.11.2011 13:45 7,3 C 0,0 C 0,0 C 69 % 4 cb 1017,5 hPa 0,0 l/m 6,4 km/h (2 Bft) W-NW 300 0 min 0,000 mm 0 W/m 2,0 C 6,3 C 6,4 km/h (2 Bft) 0,00 %
15.11.2011 13:50 7,5 C 0,0 C 0,0 C 70 % 6 cb 1017,5 hPa 0,0 l/m 5,7 km/h (1 Bft) NO 55 0 min 0,000 mm 0 W/m 2,4 C 6,7 C 5,7 km/h (1 Bft) 0,00 %
15.11.2011 13:55 6,9 C 0,0 C 0,0 C 71 % 5 cb 1017,5 hPa 0,0 l/m 9,1 km/h (2 Bft) W 275 0 min 0,000 mm 0 W/m 2,0 C 5,1 C 9,1 km/h (2 Bft) 0,00 %
15.11.2011 14:00 7,2 C 0,0 C 0,0 C 71 % 3 cb 1017,5 hPa 0,0 l/m 3,9 km/h (1 Bft) N 350 0 min 0,000 mm 0 W/m 2,3 C 7,2 C 3,9 km/h (1 Bft) 0,00 %
15.11.2011 14:05 6,7 C 0,0 C 0,0 C 71 % 4 cb 1017,5 hPa 0,0 l/m 9,1 km/h (2 Bft) N-NW 335 0 min 0,000 mm 0 W/m 1,8 C 4,9 C 9,1 km/h (2 Bft) 0,00 %
15.11.2011 14:10 7,1 C 0,0 C 0,0 C 71 % 6 cb 1017,5 hPa 0,0 l/m 3,0 km/h (1 Bft) W 280 0 min 0,000 mm 0 W/m 2,2 C 7,1 C 3,0 km/h (1 Bft) 0,00 %
15.11.2011 14:15 7,2 C 0,0 C 0,0 C 70 % 5 cb 1017,5 hPa 0,0 l/m 3,6 km/h (1 Bft) W 270 0 min 0,000 mm 0 W/m 2,1 C 7,2 C 3,6 km/h (1 Bft) 0,00 %
15.11.2011 14:20 7,0 C 0,0 C 0,0 C 70 % 5 cb 1017,5 hPa 0,0 l/m 4,8 km/h (1 Bft) W-SW 240 0 min 0,000 mm 0 W/m 1,9 C 6,4 C 4,8 km/h (1 Bft) 0,00 %
15.11.2011 14:25 6,5 C 0,0 C 0,0 C 71 % 5 cb 1017,5 hPa 0,0 l/m 4,8 km/h (1 Bft) O-NO 65 0 min 0,000 mm 0 W/m 1,6 C 5,9 C 4,8 km/h (1 Bft) 0,00 %
15.11.2011 14:30 6,2 C 0,0 C 0,0 C 72 % 5 cb 1017,5 hPa 0,0 l/m 7,9 km/h (2 Bft) SW 230 0 min 0,000 mm 0 W/m 1,5 C 4,6 C 7,9 km/h (2 Bft) 0,00 %
15.11.2011 14:35 6,4 C 0,0 C 0,0 C 71 % 6 cb 1017,5 hPa 0,0 l/m 6,1 km/h (2 Bft) N 350 0 min 0,000 mm 0 W/m 1,5 C 5,3 C 6,1 km/h (2 Bft) 0,00 %
15.11.2011 14:40 6,2 C 0,0 C 0,0 C 72 % 4 cb 1017,5 hPa 0,0 l/m 4,8 km/h (1 Bft) N-NW 345 0 min 0,000 mm 0 W/m 1,5 C 5,5 C 4,8 km/h (1 Bft) 0,00 %
15.11.2011 14:45 6,1 C 0,0 C 0,0 C 73 % 6 cb 1017,5 hPa 0,0 l/m 4,5 km/h (1 Bft) NO 40 0 min 0,000 mm 0 W/m 1,6 C 6,1 C 4,5 km/h (1 Bft) 0,00 %
15.11.2011 14:50 6,1 C 0,0 C 0,0 C 73 % 4 cb 1017,5 hPa 0,0 l/m 4,2 km/h (1 Bft) N-NO 30 0 min 0,000 mm 0 W/m 1,6 C 6,1 C 4,2 km/h (1 Bft) 0,00 %
15.11.2011 14:55 5,9 C 0,0 C 0,0 C 73 % 6 cb 1017,5 hPa 0,0 l/m 6,7 km/h (2 Bft) O-NO 70 0 min 0,000 mm 0 W/m 1,4 C 4,5 C 6,7 km/h (2 Bft) 0,00 %
15.11.2011 15:00 6,0 C 0,0 C 0,0 C 73 % 5 cb 1017,5 hPa 0,0 l/m 0,9 km/h (0 Bft) S 175 0 min 0,000 mm 0 W/m 1,5 C 6,0 C 0,9 km/h (0 Bft) 0,00 %
15.11.2011 15:05 5,2 C 0,0 C 0,0 C 74 % 5 cb 1017,5 hPa 0,0 l/m 6,7 km/h (2 Bft) NW 325 0 min 0,000 mm 0 W/m 1,0 C 3,7 C 6,7 km/h (2 Bft) 0,00 %
15.11.2011 15:10 4,9 C 0,0 C 0,0 C 75 % 5 cb 1017,5 hPa 0,0 l/m 4,2 km/h (1 Bft) O 85 0 min 0,000 mm 0 W/m 0,8 C 4,9 C 4,2 km/h (1 Bft) 0,00 %
15.11.2011 15:15 4,5 C 0,0 C 0,0 C 75 % 4 cb 1017,5 hPa 0,0 l/m 5,7 km/h (1 Bft) NO 35 0 min 0,000 mm 0 W/m 0,5 C 3,3 C 5,7 km/h (1 Bft) 0,00 %
15.11.2011 15:20 4,4 C 0,0 C 0,0 C 76 % 3 cb 1017,5 hPa 0,0 l/m 4,2 km/h (1 Bft) NW 305 0 min 0,000 mm 0 W/m 0,5 C 4,4 C 4,2 km/h (1 Bft) 0,00 %
15.11.2011 15:25 4,0 C 0,0 C 0,0 C 77 % 0 cb 1017,5 hPa 0,0 l/m 8,5 km/h (2 Bft) O-NO 75 0 min 0,000 mm 0 W/m 0,3 C 1,8 C 8,5 km/h (2 Bft) 0,00 %
15.11.2011 15:30 3,5 C 0,0 C 0,0 C 78 % 0 cb 1017,5 hPa 0,0 l/m 5,4 km/h (1 Bft) N-NW 340 0 min 0,000 mm 0 W/m 0,0 C 2,2 C 5,4 km/h (1 Bft) 0,00 %
15.11.2011 15:35 3,1 C 0,0 C 0,0 C 79 % 0 cb 1017,5 hPa 0,0 l/m 3,9 km/h (1 Bft) W-NW 285 0 min 0,000 mm 0 W/m -0,2 C 3,1 C 3,9 km/h (1 Bft) 0,00 %
15.11.2011 15:40 2,8 C 0,0 C 0,0 C 80 % 0 cb 1017,5 hPa 0,0 l/m 8,5 km/h (2 Bft) N-NW 330 0 min 0,000 mm 0 W/m -0,3 C 0,4 C 8,5 km/h (2 Bft) 0,00 %
15.11.2011 15:45 2,7 C 0,0 C 0,0 C 80 % 0 cb 1017,5 hPa 0,0 l/m 5,1 km/h (1 Bft) N-NW 345 0 min 0,000 mm 0 W/m -0,4 C 1,4 C 5,1 km/h (1 Bft) 0,00 %
15.11.2011 15:50 2,6 C 0,0 C 0,0 C 81 % 0 cb 1017,5 hPa 0,0 l/m 3,0 km/h (1 Bft) NW 320 0 min 0,000 mm 0 W/m -0,3 C 2,6 C 3,0 km/h (1 Bft) 0,00 %
15.11.2011 15:55 2,3 C 0,0 C 0,0 C 81 % 0 cb 1017,5 hPa 0,0 l/m 3,3 km/h (1 Bft) S-SO 155 0 min 0,000 mm 0 W/m -0,6 C 2,3 C 3,3 km/h (1 Bft) 0,00 %
15.11.2011 16:00 2,1 C 0,0 C 0,0 C 81 % 0 cb 1017,5 hPa 0,0 l/m 6,4 km/h (2 Bft) O-NO 75 0 min 0,000 mm 0 W/m -0,8 C 0,2 C 6,4 km/h (2 Bft) 0,00 %
15.11.2011 16:05 1,9 C 0,0 C 0,0 C 82 % 0 cb 1017,5 hPa 0,0 l/m 3,0 km/h (1 Bft) NO 35 0 min 0,000 mm 0 W/m -0,8 C 1,9 C 3,0 km/h (1 Bft) 0,00 %
15.11.2011 16:10 1,7 C 0,0 C 0,0 C 83 % 0 cb 1017,5 hPa 0,0 l/m 4,2 km/h (1 Bft) O-NO 70 0 min 0,000 mm 0 W/m -0,9 C 1,7 C 4,2 km/h (1 Bft) 0,00 %
15.11.2011 16:15 1,6 C 0,0 C 0,0 C 83 % 0 cb 1017,5 hPa 0,0 l/m 3,6 km/h (1 Bft) N 355 0 min 0,000 mm 0 W/m -1,0 C 1,6 C 3,6 km/h (1 Bft) 0,00 %
15.11.2011 16:20 1,6 C 0,0 C 0,0 C 83 % 0 cb 1017,5 hPa 0,0 l/m 1,2 km/h (1 Bft) W-SW 255 0 min 0,000 mm 0 W/m -1,0 C 1,6 C 1,2 km/h (1 Bft) 0,00 %
15.11.2011 16:25 1,4 C 0,0 C 0,0 C 84 % 0 cb 1017,5 hPa 0,0 l/m 3,6 km/h (1 Bft) N-NO 25 0 min 0,000 mm 0 W/m -1,0 C 1,4 C 3,6 km/h (1 Bft) 0,00 %
15.11.2011 16:30 1,3 C 0,0 C 0,0 C 84 % 0 cb 1017,5 hPa 0,0 l/m 4,2 km/h (1 Bft) NO 50 0 min 0,000 mm 0 W/m -1,1 C 1,3 C 4,2 km/h (1 Bft) 0,00 %
15.11.2011 16:35 1,3 C 0,0 C 0,0 C 84 % 0 cb 1017,5 hPa 0,0 l/m 3,0 km/h (1 Bft) NW 325 0 min 0,000 mm 0 W/m -1,1 C 1,3 C 3,0 km/h (1 Bft) 0,00 %
15.11.2011 16:40 1,0 C 0,0 C 0,0 C 84 % 0 cb 1017,5 hPa 0,0 l/m 0,0 km/h (0 Bft) NW 320 0 min 0,000 mm 0 W/m -1,4 C 1,0 C 0,0 km/h (0 Bft) 0,00 %
15.11.2011 16:45 0,9 C 0,0 C 0,0 C 84 % 0 cb 1017,5 hPa 0,0 l/m 0,0 km/h (0 Bft) SO 125 0 min 0,000 mm 0 W/m -1,5 C 0,9 C 0,0 km/h (0 Bft) 0,00 %
15.11.2011 16:50 0,8 C 0,0 C 0,0 C 85 % 0 cb 1017,5 hPa 0,0 l/m 0,0 km/h (0 Bft) S-SW 195 0 min 0,000 mm 0 W/m -1,4 C 0,8 C 0,0 km/h (0 Bft) 0,00 %
15.11.2011 16:55 0,6 C 0,0 C 0,0 C 85 % 0 cb 1017,5 hPa 0,0 l/m 0,0 km/h (0 Bft) O 85 0 min 0,000 mm 0 W/m -1,6 C 0,6 C 0,0 km/h (0 Bft) 0,00 %
15.11.2011 17:00 0,5 C 0,0 C 0,0 C 85 % 0 cb 1017,5 hPa 0,0 l/m 2,4 km/h (1 Bft) N 0 0 min 0,000 mm 0 W/m -1,7 C 0,5 C 2,4 km/h (1 Bft) 0,00 %
15.11.2011 17:05 0,4 C 0,0 C 0,0 C 85 % 0 cb 1017,5 hPa 0,0 l/m 0,9 km/h (0 Bft) S-SW 195 0 min 0,000 mm 0 W/m -1,8 C 0,4 C 0,9 km/h (0 Bft) 0,00 %
15.11.2011 17:10 0,4 C 0,0 C 0,0 C 85 % 0 cb 1017,5 hPa 0,0 l/m 3,0 km/h (1 Bft) N-NO 20 0 min 0,000 mm 0 W/m -1,8 C 0,4 C 3,0 km/h (1 Bft) 0,00 %
15.11.2011 17:15 0,4 C 0,0 C 0,0 C 86 % 0 cb 1018,5 hPa 0,0 l/m 6,1 km/h (2 Bft) S 170 0 min 0,000 mm 0 W/m -1,7 C -1,6 C 6,1 km/h (2 Bft) 0,00 %
15.11.2011 17:20 0,2 C 0,0 C 0,0 C 86 % 0 cb 1018,5 hPa 0,0 l/m 1,8 km/h (1 Bft) N 5 0 min 0,000 mm 0 W/m -1,9 C 0,2 C 1,8 km/h (1 Bft) 0,00 %
15.11.2011 17:25 0,0 C 0,0 C 0,0 C 86 % 0 cb 1018,5 hPa 0,0 l/m 3,6 km/h (1 Bft) O-SO 105 0 min 0,000 mm 0 W/m -2,1 C 0,0 C 3,6 km/h (1 Bft) 0,00 %
15.11.2011 17:30 0,0 C 0,0 C 0,0 C 86 % 0 cb 1017,5 hPa 0,0 l/m 7,0 km/h (2 Bft) N 355 0 min 0,000 mm 0 W/m -2,1 C -2,4 C 7,0 km/h (2 Bft) 0,00 %
15.11.2011 17:35 0,0 C 0,0 C 0,0 C 87 % 0 cb 1017,5 hPa 0,0 l/m 4,2 km/h (1 Bft) O-NO 75 0 min 0,000 mm 0 W/m -1,9 C 0,0 C 4,2 km/h (1 Bft) 0,00 %
15.11.2011 17:40 0,0 C 0,0 C 0,0 C 87 % 0 cb 1017,5 hPa 0,0 l/m 3,6 km/h (1 Bft) S-SW 210 0 min 0,000 mm 0 W/m -1,9 C 0,0 C 3,6 km/h (1 Bft) 0,00 %
15.11.2011 17:45 0,0 C 0,0 C 0,0 C 87 % 0 cb 1017,5 hPa 0,0 l/m 6,1 km/h (2 Bft) O-NO 65 0 min 0,000 mm 0 W/m -1,9 C -2,1 C 6,1 km/h (2 Bft) 0,00 %
15.11.2011 17:50 -0,2 C 0,0 C 0,0 C 87 % 0 cb 1017,5 hPa 0,0 l/m 0,0 km/h (0 Bft) W-NW 285 0 min 0,000 mm 0 W/m -2,1 C -0,2 C 0,0 km/h (0 Bft) 0,00 %
15.11.2011 17:55 -0,3 C 0,0 C 0,0 C 87 % 0 cb 1017,5 hPa 0,0 l/m 0,3 km/h (0 Bft) O 95 0 min 0,000 mm 0 W/m -2,2 C -0,3 C 0,3 km/h (0 Bft) 0,00 %
15.11.2011 18:00 -0,3 C 0,0 C 0,0 C 87 % 0 cb 1017,5 hPa 0,0 l/m 3,6 km/h (1 Bft) N 10 0 min 0,000 mm 0 W/m -2,2 C -0,3 C 3,6 km/h (1 Bft) 0,00 %
15.11.2011 18:05 -0,4 C 0,0 C 0,0 C 87 % 0 cb 1017,5 hPa 0,0 l/m 1,2 km/h (1 Bft) N 5 0 min 0,000 mm 0 W/m -2,3 C -0,4 C 1,2 km/h (1 Bft) 0,00 %
15.11.2011 18:10 -0,5 C 0,0 C 0,0 C 87 % 0 cb 1017,5 hPa 0,0 l/m 1,5 km/h (1 Bft) O 90 0 min 0,000 mm 0 W/m -2,4 C -0,5 C 1,5 km/h (1 Bft) 0,00 %
15.11.2011 18:15 -0,5 C 0,0 C 0,0 C 87 % 0 cb 1018,5 hPa 0,0 l/m 0,6 km/h (0 Bft) O-NO 60 0 min 0,000 mm 0 W/m -2,4 C -0,5 C 0,6 km/h (0 Bft) 0,00 %
15.11.2011 18:20 -0,6 C 0,0 C 0,0 C 88 % 0 cb 1018,5 hPa 0,0 l/m 0,0 km/h (0 Bft) SW 230 0 min 0,000 mm 0 W/m -2,3 C -0,6 C 0,0 km/h (0 Bft) 0,00 %
15.11.2011 18:25 -0,6 C 0,0 C 0,0 C 88 % 0 cb 1018,5 hPa 0,0 l/m 1,2 km/h (1 Bft) NW 315 0 min 0,000 mm 0 W/m -2,3 C -0,6 C 1,2 km/h (1 Bft) 0,00 %
15.11.2011 18:30 -0,5 C 0,0 C 0,0 C 88 % 0 cb 1018,5 hPa 0,0 l/m 9,7 km/h (2 Bft) N-NO 25 0 min 0,000 mm 0 W/m -2,2 C -3,8 C 9,7 km/h (2 Bft) 0,00 %
15.11.2011 18:35 -0,5 C 0,0 C 0,0 C 88 % 0 cb 1018,5 hPa 0,0 l/m 2,7 km/h (1 Bft) S-SO 155 0 min 0,000 mm 0 W/m -2,2 C -0,5 C 2,7 km/h (1 Bft) 0,00 %
15.11.2011 18:40 -0,6 C 0,0 C 0,0 C 88 % 0 cb 1018,5 hPa 0,0 l/m 3,9 km/h (1 Bft) O-NO 65 0 min 0,000 mm 0 W/m -2,3 C -0,6 C 3,9 km/h (1 Bft) 0,00 %
15.11.2011 18:45 -0,6 C 0,0 C 0,0 C 88 % 0 cb 1017,5 hPa 0,0 l/m 1,8 km/h (1 Bft) W-SW 245 0 min 0,000 mm 0 W/m -2,3 C -0,6 C 1,8 km/h (1 Bft) 0,00 %
15.11.2011 18:50 -0,6 C 0,0 C 0,0 C 88 % 0 cb 1017,5 hPa 0,0 l/m 3,3 km/h (1 Bft) NO 35 0 min 0,000 mm 0 W/m -2,3 C -0,6 C 3,3 km/h (1 Bft) 0,00 %
15.11.2011 18:55 -0,6 C 0,0 C 0,0 C 88 % 0 cb 1017,5 hPa 0,0 l/m 0,3 km/h (0 Bft) NO 40 0 min 0,000 mm 0 W/m -2,3 C -0,6 C 0,3 km/h (0 Bft) 0,00 %
15.11.2011 19:00 -0,6 C 0,0 C 0,0 C 88 % 0 cb 1018,5 hPa 0,0 l/m 4,8 km/h (1 Bft) S-SO 155 0 min 0,000 mm 0 W/m -2,3 C -2,2 C 4,8 km/h (1 Bft) 0,00 %
15.11.2011 19:05 -0,5 C 0,0 C 0,0 C 88 % 0 cb 1018,5 hPa 0,0 l/m 3,9 km/h (1 Bft) W-NW 295 0 min 0,000 mm 0 W/m -2,2 C -0,5 C 3,9 km/h (1 Bft) 0,00 %
15.11.2011 19:10 -0,6 C 0,0 C 0,0 C 88 % 0 cb 1018,5 hPa 0,0 l/m 2,4 km/h (1 Bft) O 85 0 min 0,000 mm 0 W/m -2,3 C -0,6 C 2,4 km/h (1 Bft) 0,00 %
15.11.2011 19:15 -0,6 C 0,0 C 0,0 C 88 % 0 cb 1018,5 hPa 0,0 l/m 3,0 km/h (1 Bft) NO 50 0 min 0,000 mm 0 W/m -2,3 C -0,6 C 3,0 km/h (1 Bft) 0,00 %
15.11.2011 19:20 -0,7 C 0,0 C 0,0 C 88 % 0 cb 1018,5 hPa 0,0 l/m 0,6 km/h (0 Bft) S-SW 195 0 min 0,000 mm 0 W/m -2,4 C -0,7 C 0,6 km/h (0 Bft) 0,00 %
15.11.2011 19:25 -0,7 C 0,0 C 0,0 C 88 % 0 cb 1018,5 hPa 0,0 l/m 0,6 km/h (0 Bft) SO 145 0 min 0,000 mm 0 W/m -2,4 C -0,7 C 0,6 km/h (0 Bft) 0,00 %
15.11.2011 19:30 -0,8 C 0,0 C 0,0 C 88 % 0 cb 1018,5 hPa 0,0 l/m 2,7 km/h (1 Bft) W 280 0 min 0,000 mm 0 W/m -2,5 C -0,8 C 2,7 km/h (1 Bft) 0,00 %
15.11.2011 19:35 -0,8 C 0,0 C 0,0 C 88 % 0 cb 1018,5 hPa 0,0 l/m 1,8 km/h (1 Bft) N 0 0 min 0,000 mm 0 W/m -2,5 C -0,8 C 1,8 km/h (1 Bft) 0,00 %
15.11.2011 19:40 -0,8 C 0,0 C 0,0 C 88 % 0 cb 1018,5 hPa 0,0 l/m 0,0 km/h (0 Bft) O 95 0 min 0,000 mm 0 W/m -2,5 C -0,8 C 0,0 km/h (0 Bft) 0,00 %
15.11.2011 19:45 -0,8 C 0,0 C 0,0 C 88 % 0 cb 1017,5 hPa 0,0 l/m 1,5 km/h (1 Bft) W 280 0 min 0,000 mm 0 W/m -2,5 C -0,8 C 1,5 km/h (1 Bft) 0,00 %
15.11.2011 19:50 -0,8 C 0,0 C 0,0 C 88 % 0 cb 1017,5 hPa 0,0 l/m 1,2 km/h (1 Bft) S-SO 155 0 min 0,000 mm 0 W/m -2,5 C -0,8 C 1,2 km/h (1 Bft) 0,00 %
15.11.2011 19:55 -0,9 C 0,0 C 0,0 C 88 % 0 cb 1017,5 hPa 0,0 l/m 3,6 km/h (1 Bft) O-NO 75 0 min 0,000 mm 0 W/m -2,6 C -0,9 C 3,6 km/h (1 Bft) 0,00 %
15.11.2011 20:00 -1,0 C 0,0 C 0,0 C 88 % 0 cb 1018,5 hPa 0,0 l/m 3,0 km/h (1 Bft) N-NW 340 0 min 0,000 mm 0 W/m -2,7 C -1,0 C 3,0 km/h (1 Bft) 0,00 %
15.11.2011 20:05 -0,9 C 0,0 C 0,0 C 88 % 0 cb 1018,5 hPa 0,0 l/m 2,4 km/h (1 Bft) N 0 0 min 0,000 mm 0 W/m -2,6 C -0,9 C 2,4 km/h (1 Bft) 0,00 %
15.11.2011 20:10 -1,0 C 0,0 C 0,0 C 88 % 0 cb 1018,5 hPa 0,0 l/m 0,0 km/h (0 Bft) S 175 0 min 0,000 mm 0 W/m -2,7 C -1,0 C 0,0 km/h (0 Bft) 0,00 %
15.11.2011 20:15 -0,8 C 0,0 C 0,0 C 88 % 0 cb 1017,5 hPa 0,0 l/m 1,2 km/h (1 Bft) W-SW 255 0 min 0,000 mm 0 W/m -2,5 C -0,8 C 1,2 km/h (1 Bft) 0,00 %
15.11.2011 20:20 -0,8 C 0,0 C 0,0 C 88 % 0 cb 1017,5 hPa 0,0 l/m 2,7 km/h (1 Bft) W-NW 285 0 min 0,000 mm 0 W/m -2,5 C -0,8 C 2,7 km/h (1 Bft) 0,00 %
15.11.2011 20:25 -0,8 C 0,0 C 0,0 C 88 % 0 cb 1017,5 hPa 0,0 l/m 1,5 km/h (1 Bft) SO 135 0 min 0,000 mm 0 W/m -2,5 C -0,8 C 1,5 km/h (1 Bft) 0,00 %
15.11.2011 20:30 -0,8 C 0,0 C 0,0 C 88 % 0 cb 1017,5 hPa 0,0 l/m 0,0 km/h (0 Bft) W-NW 290 0 min 0,000 mm 0 W/m -2,5 C -0,8 C 0,0 km/h (0 Bft) 0,00 %
15.11.2011 20:35 -0,8 C 0,0 C 0,0 C 88 % 0 cb 1017,5 hPa 0,0 l/m 1,8 km/h (1 Bft) N-NW 330 0 min 0,000 mm 0 W/m -2,5 C -0,8 C 1,8 km/h (1 Bft) 0,00 %
15.11.2011 20:40 -0,9 C 0,0 C 0,0 C 88 % 0 cb 1017,5 hPa 0,0 l/m 0,6 km/h (0 Bft) O-SO 120 0 min 0,000 mm 0 W/m -2,6 C -0,9 C 0,6 km/h (0 Bft) 0,00 %
15.11.2011 20:45 -0,9 C 0,0 C 0,0 C 88 % 0 cb 1017,5 hPa 0,0 l/m 0,0 km/h (0 Bft) W 275 0 min 0,000 mm 0 W/m -2,6 C -0,9 C 0,0 km/h (0 Bft) 0,00 %
15.11.2011 20:50 -0,9 C 0,0 C 0,0 C 88 % 0 cb 1017,5 hPa 0,0 l/m 0,0 km/h (0 Bft) W 280 0 min 0,000 mm 0 W/m -2,6 C -0,9 C 0,0 km/h (0 Bft) 0,00 %
15.11.2011 20:55 -0,8 C 0,0 C 0,0 C 88 % 0 cb 1017,5 hPa 0,0 l/m 2,4 km/h (1 Bft) W-SW 255 0 min 0,000 mm 0 W/m -2,5 C -0,8 C 2,4 km/h (1 Bft) 0,00 %
15.11.2011 21:00 -0,8 C 0,0 C 0,0 C 88 % 0 cb 1018,5 hPa 0,0 l/m 1,8 km/h (1 Bft) N-NW 330 0 min 0,000 mm 0 W/m -2,5 C -0,8 C 1,8 km/h (1 Bft) 0,00 %
15.11.2011 21:05 -0,8 C 0,0 C 0,0 C 88 % 0 cb 1018,5 hPa 0,0 l/m 1,2 km/h (1 Bft) W-NW 295 0 min 0,000 mm 0 W/m -2,5 C -0,8 C 1,2 km/h (1 Bft) 0,00 %
15.11.2011 21:10 -0,8 C 0,0 C 0,0 C 88 % 0 cb 1018,5 hPa 0,0 l/m 0,0 km/h (0 Bft) S 190 0 min 0,000 mm 0 W/m -2,5 C -0,8 C 0,0 km/h (0 Bft) 0,00 %
15.11.2011 21:15 -0,7 C 0,0 C 0,0 C 88 % 0 cb 1017,5 hPa 0,0 l/m 1,2 km/h (1 Bft) NW 320 0 min 0,000 mm 0 W/m -2,4 C -0,7 C 1,2 km/h (1 Bft) 0,00 %
15.11.2011 21:20 -0,6 C 0,0 C 0,0 C 88 % 0 cb 1017,5 hPa 0,0 l/m 3,6 km/h (1 Bft) S-SW 195 0 min 0,000 mm 0 W/m -2,3 C -0,6 C 3,6 km/h (1 Bft) 0,00 %
15.11.2011 21:25 -0,6 C 0,0 C 0,0 C 88 % 0 cb 1017,5 hPa 0,0 l/m 4,8 km/h (1 Bft) SW 230 0 min 0,000 mm 0 W/m -2,3 C -2,2 C 4,8 km/h (1 Bft) 0,00 %
15.11.2011 21:30 -0,7 C 0,0 C 0,0 C 88 % 0 cb 1017,5 hPa 0,0 l/m 4,8 km/h (1 Bft) O-NO 70 0 min 0,000 mm 0 W/m -2,4 C -2,3 C 4,8 km/h (1 Bft) 0,00 %
15.11.2011 21:35 -0,7 C 0,0 C 0,0 C 88 % 0 cb 1017,5 hPa 0,0 l/m 1,2 km/h (1 Bft) NW 320 0 min 0,000 mm 0 W/m -2,4 C -0,7 C 1,2 km/h (1 Bft) 0,00 %
15.11.2011 21:40 -0,7 C 0,0 C 0,0 C 88 % 0 cb 1017,5 hPa 0,0 l/m 4,2 km/h (1 Bft) N 0 0 min 0,000 mm 0 W/m -2,4 C -0,7 C 4,2 km/h (1 Bft) 0,00 %
15.11.2011 21:45 -0,6 C 0,0 C 0,0 C 88 % 0 cb 1017,5 hPa 0,0 l/m 5,4 km/h (1 Bft) W 280 0 min 0,000 mm 0 W/m -2,3 C -2,5 C 5,4 km/h (1 Bft) 0,00 %
15.11.2011 21:50 -0,6 C 0,0 C 0,0 C 88 % 0 cb 1017,5 hPa 0,0 l/m 2,7 km/h (1 Bft) O-SO 110 0 min 0,000 mm 0 W/m -2,3 C -0,6 C 2,7 km/h (1 Bft) 0,00 %
15.11.2011 21:55 -0,6 C 0,0 C 0,0 C 88 % 0 cb 1017,5 hPa 0,0 l/m 3,3 km/h (1 Bft) SO 145 0 min 0,000 mm 0 W/m -2,3 C -0,6 C 3,3 km/h (1 Bft) 0,00 %
15.11.2011 22:00 -0,7 C 0,0 C 0,0 C 88 % 0 cb 1018,5 hPa 0,0 l/m 3,6 km/h (1 Bft) N-NW 330 0 min 0,000 mm 0 W/m -2,4 C -0,7 C 3,6 km/h (1 Bft) 0,00 %
15.11.2011 22:05 -0,7 C 0,0 C 0,0 C 88 % 0 cb 1018,5 hPa 0,0 l/m 1,5 km/h (1 Bft) W-SW 255 0 min 0,000 mm 0 W/m -2,4 C -0,7 C 1,5 km/h (1 Bft) 0,00 %
15.11.2011 22:10 -0,8 C 0,0 C 0,0 C 88 % 0 cb 1018,5 hPa 0,0 l/m 2,1 km/h (1 Bft) W-NW 300 0 min 0,000 mm 0 W/m -2,5 C -0,8 C 2,1 km/h (1 Bft) 0,00 %
15.11.2011 22:15 -0,8 C 0,0 C 0,0 C 88 % 0 cb 1017,5 hPa 0,0 l/m 3,9 km/h (1 Bft) SO 130 0 min 0,000 mm 0 W/m -2,5 C -0,8 C 3,9 km/h (1 Bft) 0,00 %
15.11.2011 22:20 -0,8 C 0,0 C 0,0 C 88 % 0 cb 1017,5 hPa 0,0 l/m 3,0 km/h (1 Bft) NW 320 0 min 0,000 mm 0 W/m -2,5 C -0,8 C 3,0 km/h (1 Bft) 0,00 %
15.11.2011 22:25 -0,8 C 0,0 C 0,0 C 88 % 0 cb 1017,5 hPa 0,0 l/m 0,6 km/h (0 Bft) N 5 0 min 0,000 mm 0 W/m -2,5 C -0,8 C 0,6 km/h (0 Bft) 0,00 %
15.11.2011 22:30 -0,8 C 0,0 C 0,0 C 88 % 0 cb 1017,5 hPa 0,0 l/m 5,4 km/h (1 Bft) N 350 0 min 0,000 mm 0 W/m -2,5 C -2,7 C 5,4 km/h (1 Bft) 0,00 %
15.11.2011 22:35 -0,9 C 0,0 C 0,0 C 88 % 0 cb 1017,5 hPa 0,0 l/m 1,8 km/h (1 Bft) W-NW 295 0 min 0,000 mm 0 W/m -2,6 C -0,9 C 1,8 km/h (1 Bft) 0,00 %
15.11.2011 22:40 -1,0 C 0,0 C 0,0 C 88 % 0 cb 1017,5 hPa 0,0 l/m 0,6 km/h (0 Bft) O-NO 65 0 min 0,000 mm 0 W/m -2,7 C -1,0 C 0,6 km/h (0 Bft) 0,00 %
15.11.2011 22:45 -1,0 C 0,0 C 0,0 C 88 % 0 cb 1017,5 hPa 0,0 l/m 1,2 km/h (1 Bft) O-NO 65 0 min 0,000 mm 0 W/m -2,7 C -1,0 C 1,2 km/h (1 Bft) 0,00 %
15.11.2011 22:50 -1,0 C 0,0 C 0,0 C 88 % 0 cb 1017,5 hPa 0,0 l/m 4,2 km/h (1 Bft) NO 55 0 min 0,000 mm 0 W/m -2,7 C -1,0 C 4,2 km/h (1 Bft) 0,00 %
15.11.2011 22:55 -1,0 C 0,0 C 0,0 C 88 % 0 cb 1017,5 hPa 0,0 l/m 3,6 km/h (1 Bft) N-NO 15 0 min 0,000 mm 0 W/m -2,7 C -1,0 C 3,6 km/h (1 Bft) 0,00 %
15.11.2011 23:00 -0,9 C 0,0 C 0,0 C 88 % 0 cb 1018,5 hPa 0,0 l/m 3,0 km/h (1 Bft) N-NO 25 0 min 0,000 mm 0 W/m -2,6 C -0,9 C 3,0 km/h (1 Bft) 0,00 %
15.11.2011 23:05 -0,9 C 0,0 C 0,0 C 88 % 0 cb 1018,5 hPa 0,0 l/m 2,4 km/h (1 Bft) N 10 0 min 0,000 mm 0 W/m -2,6 C -0,9 C 2,4 km/h (1 Bft) 0,00 %
15.11.2011 23:10 -0,8 C 0,0 C 0,0 C 88 % 0 cb 1018,5 hPa 0,0 l/m 2,7 km/h (1 Bft) NW 310 0 min 0,000 mm 0 W/m -2,5 C -0,8 C 2,7 km/h (1 Bft) 0,00 %
15.11.2011 23:15 -0,8 C 0,0 C 0,0 C 88 % 0 cb 1017,5 hPa 0,0 l/m 5,7 km/h (1 Bft) NO 35 0 min 0,000 mm 0 W/m -2,5 C -2,8 C 5,7 km/h (1 Bft) 0,00 %
15.11.2011 23:20 -0,8 C 0,0 C 0,0 C 88 % 0 cb 1017,5 hPa 0,0 l/m 0,9 km/h (0 Bft) NW 325 0 min 0,000 mm 0 W/m -2,5 C -0,8 C 0,9 km/h (0 Bft) 0,00 %
15.11.2011 23:25 -0,8 C 0,0 C 0,0 C 88 % 0 cb 1017,5 hPa 0,0 l/m 4,2 km/h (1 Bft) W-NW 290 0 min 0,000 mm 0 W/m -2,5 C -0,8 C 4,2 km/h (1 Bft) 0,00 %
15.11.2011 23:30 -0,8 C 0,0 C 0,0 C 88 % 0 cb 1017,5 hPa 0,0 l/m 3,9 km/h (1 Bft) N 10 0 min 0,000 mm 0 W/m -2,5 C -0,8 C 3,9 km/h (1 Bft) 0,00 %
15.11.2011 23:35 -0,8 C 0,0 C 0,0 C 88 % 0 cb 1017,5 hPa 0,0 l/m 0,0 km/h (0 Bft) O 90 0 min 0,000 mm 0 W/m -2,5 C -0,8 C 0,0 km/h (0 Bft) 0,00 %
15.11.2011 23:40 -0,8 C 0,0 C 0,0 C 88 % 0 cb 1017,5 hPa 0,0 l/m 0,0 km/h (0 Bft) W 275 0 min 0,000 mm 0 W/m -2,5 C -0,8 C 0,0 km/h (0 Bft) 0,00 %
15.11.2011 23:45 -0,7 C 0,0 C 0,0 C 88 % 0 cb 1017,5 hPa 0,0 l/m 1,8 km/h (1 Bft) W-SW 255 0 min 0,000 mm 0 W/m -2,4 C -0,7 C 1,8 km/h (1 Bft) 0,00 %
15.11.2011 23:50 -0,6 C 0,0 C 0,0 C 87 % 0 cb 1017,5 hPa 0,0 l/m 3,0 km/h (1 Bft) O-NO 65 0 min 0,000 mm 0 W/m -2,5 C -0,6 C 3,0 km/h (1 Bft) 0,00 %
15.11.2011 23:55 -0,6 C 0,0 C 0,0 C 87 % 0 cb 1017,5 hPa 0,0 l/m 2,4 km/h (1 Bft) S 185 0 min 0,000 mm 0 W/m -2,5 C -0,6 C 2,4 km/h (1 Bft) 0,00 %
_ Min-Zeit 20:00 00:00 00:00 13:25 00:00 13:00 - 00:15 - - - - - 20:00 18:30 00:15 00:00
Minimum _ -1,0 C 0,0 C 0,0 C 68 % 0 cb 1017,5 hPa - 0,0 km/h (0 Bft) - - - - - -2,7 C -3,8 C 0,0 km/h (0 Bft) 0,00 %
_ Max-Zeit 13:25 00:00 00:00 00:00 13:10 00:00 00:00 04:20 - - 00:00 00:00 00:00 13:25 13:35 04:20 00:00
Maximum _ 8,0 C 0,0 C 0,0 C 89 % 9 cb 1020,5 hPa 0,0 l/m 10,3 km/h
S (2 Bft)
- - 0 min 0,000 mm 0 W/m 2,5 C 7,9 C 10,3 km/h
S (2 Bft)
0,00 %
Durchschnitt _ 1,3 C 0,0 C 0,0 C 85 % 1 cb 1018,6 hPa #0,0 l/m 3,1 km/h (1 Bft) O-NO - #0 min. #0,000 mm 0 W/m -1,0 C 0,9 C 3,1 km/h (1 Bft) 0,00 %
Wetterstation Gdesweiler